Accueil
METAR-TAF:

METAR-TAF

Aéroports :

Aérodrome de Reims - Prunay

Reims, France

latitude: 49-12-31N, longitude: 004-09-24E, altitude: 95 m

Observation

Le bulletin a été fait il y a 21 minutes, à 08:00 UTC
Vent 4 kt de sud-ouest, variant entre sud et ouest/sud-ouest
Température 17°C
Humidité 82%
Pression 1013 hPa
Visibilité 10 km ou plus

METAR: LFQA 030800Z AUTO 22004KT 180V240 9999 BKN012/// BKN020/// BKN035/// ///TCU 17/14 Q1013

Heure: 10:21 (08:21 UTC)


TAF: absent

Observations et prévisions météorologiques de plus de 4000 aéroports (messages METAR et TAF).

Les stations disponibles sont représentées par des disques jaunes et rouges sur la carte.

Passer la souris dessus pour voir le nom de la station.

Cliquer dessus pour voir les observations et prévisions météorologiques.

Pour changer de carte: cliquez sur les boutons verts avec une croix noire pour zoomer, sur le bouton vert avec un tiret pour effectuer un zoom arrière, ou sur les flèches vertes pour les cartes adjacentes.


METAR-TAF: